Track YAOGAN 16C now! 10-day predictions YAOGAN 16C is classified as:
1 39013U 12066C 24326.14564641 .00000063 00000-0 16522-3 0 9997 2 39013 63.3610 328.6568 0388255 21.9719 339.7454 13.45387569589081